Alvadore, OR

12:40 AM PST on February 09, 2016 (GMT -0800)
Mahlon Sweet

Weather History for KEUG - August, 2014

Change the Weather History Date:

Monday, August 11, 2014

  Actual Average Record
Temperature  
Mean Temperature 81 °F 68 °F  
Max Temperature 101 °F 84 °F 104 °F (1992)
Min Temperature 60 °F 52 °F 41 °F (2007)
Degree Days  
Heating Degree Days 0 1  
Month to date heating degree days 0 11  
Since 1 June heating degree days 113 204  
Since 1 July heating degree days 6 47  
Cooling Degree Days 16 3  
Month to date cooling degree days 94 42  
Year to date cooling degree days 296 159  
Since 1 June cooling degree days 293 154  
Growing Degree Days 30 (Base 50)    
Moisture  
Dew Point 59 °F    
Average Humidity 54    
Maximum Humidity 84    
Minimum Humidity 23    
Precipitation  
Precipitation T in 0.02 in 0.39 in (1965)
Month to date precipitation 0.01 0.13  
Year to date precipitation 22.82 25.53  
Sea Level Pressure  
Sea Level Pressure 29.87 in    
Wind  
Wind Speed 6 mph (SSW)    
Max Wind Speed 21 mph    
Max Gust Speed 25 mph    
Visibility 10 miles    
Events Rain    
T = Trace of Precipitation, MM = Missing Value Source: NWS Daily Summary

Daily Weather History Graph

Daily Weather History Graph

Search for Another Location

Airport or City:

Trip Planner

Search our weather history database for the weather conditions in past years. The results will help you decide how hot, cold, wet, or windy it might be!

Date:

Astronomy

Aug. 11, 2014 Rise Set
Actual Time 6:12 AM PDT 8:23 PM PDT
Civil Twilight 5:40 AM PDT 8:54 PM PDT
Nautical Twilight 5:00 AM PDT 9:34 PM PDT
Astronomical Twilight 4:17 AM PDT 10:17 PM PDT
Moon 8:49 PM PDT (8/11) 7:28 AM PDT (8/11)
Length of Visible Light 15h 14m
Length of Day
14h 11m
Full, 98% of the Moon is Illuminated
Aug 11
Full
Aug 17
Last Quarter
Aug 25
New
Sep 2
First Quarter
Sep 8
Full

Hourly Weather History & Observations

Time (PDT) Temp. Heat Index Dew Point Humidity Pressure Visibility Wind Dir Wind Speed Gust Speed Precip Events Conditions
12:54 AM 73.9 °F - 59.0 °F 59% 29.89 in 10.0 mi Calm Calm - N/A   Clear
1:54 AM 72.0 °F - 57.9 °F 61% 29.89 in 10.0 mi ENE 6.9 mph - N/A   Clear
2:54 AM 70.0 °F - 59.0 °F 68% 29.88 in 10.0 mi Calm Calm - N/A   Clear
3:54 AM 64.0 °F - 57.0 °F 78% 29.90 in 10.0 mi Calm Calm - N/A   Clear
4:54 AM 64.0 °F - 57.0 °F 78% 29.89 in 10.0 mi SW 3.5 mph - N/A   Clear
5:54 AM 63.0 °F - 57.9 °F 84% 29.90 in 10.0 mi SSW 4.6 mph - N/A   Partly Cloudy
6:54 AM 64.0 °F - 57.9 °F 80% 29.91 in 10.0 mi SW 4.6 mph - N/A   Scattered Clouds
7:54 AM 72.0 °F - 61.0 °F 68% 29.92 in 10.0 mi South 3.5 mph - N/A   Mostly Cloudy
8:54 AM 75.9 °F - 60.1 °F 58% 29.91 in 10.0 mi South 3.5 mph - N/A   Mostly Cloudy
9:54 AM 81.0 °F 81.3 °F 59.0 °F 47% 29.91 in 10.0 mi Variable 3.5 mph - N/A   Mostly Cloudy
10:54 AM 86.0 °F 85.4 °F 59.0 °F 40% 29.89 in 10.0 mi Variable 4.6 mph - N/A   Mostly Cloudy
11:54 AM 89.1 °F 88.0 °F 57.9 °F 35% 29.87 in 10.0 mi Calm Calm - N/A   Mostly Cloudy
12:54 PM 91.9 °F 91.5 °F 60.1 °F 34% 29.87 in 10.0 mi ENE 8.1 mph - N/A   Mostly Cloudy
1:54 PM 93.9 °F 93.2 °F 59.0 °F 31% 29.86 in 10.0 mi ESE 5.8 mph - N/A   Mostly Cloudy
2:54 PM 98.1 °F 96.8 °F 57.0 °F 25% 29.83 in 10.0 mi NNE 4.6 mph - N/A   Mostly Cloudy
3:54 PM 98.1 °F 96.4 °F 55.9 °F 24% 29.82 in 10.0 mi Calm Calm - N/A   Mostly Cloudy
4:54 PM 100.0 °F 98.8 °F 55.9 °F 23% 29.80 in 10.0 mi Variable 4.6 mph - N/A   Mostly Cloudy
5:54 PM 91.0 °F 90.9 °F 61.0 °F 36% 29.81 in 10.0 mi WSW 13.8 mph - N/A   Mostly Cloudy
6:54 PM 86.0 °F 85.7 °F 60.1 °F 41% 29.82 in 10.0 mi WSW 11.5 mph - N/A   Overcast
7:54 PM 82.0 °F 82.7 °F 61.0 °F 49% 29.83 in 10.0 mi SSW 9.2 mph - N/A   Overcast
8:54 PM 78.1 °F - 61.0 °F 56% 29.87 in 10.0 mi SSW 13.8 mph - N/A   Overcast
9:54 PM 75.9 °F - 60.1 °F 58% 29.88 in 10.0 mi WSW 12.7 mph - 0.00 in Rain Light Rain
10:54 PM 73.0 °F - 59.0 °F 61% 29.86 in 10.0 mi SSE 4.6 mph - 0.00 in   Overcast
11:39 PM 71.1 °F - 59.0 °F 66% 29.87 in 10.0 mi West 12.7 mph - N/A   Clear
11:54 PM 70.0 °F - 57.9 °F 65% 29.86 in 10.0 mi SW 13.8 mph - N/A   Clear